TimeEDT,TemperatureF,Dew PointF,Humidity,Sea Level PressureIn,VisibilityMPH,Wind Direction,Wind SpeedMPH,Gust SpeedMPH,PrecipitationIn,Events,Conditions,WindDirDegrees,DateUTC
12:53 AM,64.9,62.1,90,30.14,10.0,Calm,Calm,-,N/A,,Clear,0,2013-04-09 04:53:00
1:53 AM,64.0,61.0,90,30.13,10.0,Calm,Calm,-,N/A,,Partly Cloudy,0,2013-04-09 05:53:00
2:53 AM,63.0,61.0,93,30.11,10.0,Calm,Calm,-,N/A,,Partly Cloudy,0,2013-04-09 06:53:00
3:53 AM,64.0,62.1,93,30.10,10.0,East,3.5,-,N/A,,Partly Cloudy,100,2013-04-09 07:53:00
4:53 AM,63.0,62.1,97,30.10,10.0,East,3.5,-,N/A,,Partly Cloudy,100,2013-04-09 08:53:00
5:53 AM,64.9,64.0,97,30.11,10.0,Calm,Calm,-,N/A,,Mostly Cloudy,0,2013-04-09 09:53:00
6:53 AM,64.9,63.0,93,30.13,10.0,East,4.6,-,N/A,Fog,Patches of Fog,100,2013-04-09 10:53:00
7:53 AM,66.0,64.9,96,30.15,10.0,Calm,Calm,-,N/A,,Scattered Clouds,0,2013-04-09 11:53:00
8:53 AM,72.0,66.9,84,30.17,10.0,East,8.1,-,N/A,,Scattered Clouds,100,2013-04-09 12:53:00
9:53 AM,77.0,64.9,66,30.18,10.0,East,12.7,-,N/A,,Scattered Clouds,100,2013-04-09 13:53:00
10:53 AM,79.0,63.0,58,30.19,10.0,ESE,16.1,19.6,N/A,,Scattered Clouds,110,2013-04-09 14:53:00
11:53 AM,79.0,62.1,56,30.18,10.0,SE,12.7,-,N/A,,Scattered Clouds,130,2013-04-09 15:53:00
12:53 PM,84.0,61.0,46,30.17,10.0,ESE,10.4,-,N/A,,Mostly Cloudy,120,2013-04-09 16:53:00
1:53 PM,82.0,59.0,45,30.15,10.0,ESE,12.7,-,N/A,,Mostly Cloudy,120,2013-04-09 17:53:00
2:53 PM,82.9,61.0,47,30.14,10.0,ESE,15.0,-,N/A,,Mostly Cloudy,110,2013-04-09 18:53:00
3:53 PM,84.0,61.0,46,30.12,10.0,East,16.1,21.9,N/A,,Mostly Cloudy,100,2013-04-09 19:53:00
4:53 PM,81.0,57.9,45,30.12,10.0,East,16.1,-,N/A,,Mostly Cloudy,90,2013-04-09 20:53:00
5:53 PM,80.1,57.0,45,30.13,10.0,East,15.0,-,N/A,,Mostly Cloudy,100,2013-04-09 21:53:00
6:53 PM,77.0,55.9,48,30.12,10.0,ESE,13.8,-,N/A,,Scattered Clouds,110,2013-04-09 22:53:00
7:53 PM,73.0,59.0,61,30.13,10.0,ESE,10.4,-,N/A,,Partly Cloudy,110,2013-04-09 23:53:00
8:53 PM,70.0,59.0,68,30.15,10.0,East,6.9,-,N/A,,Partly Cloudy,100,2013-04-10 00:53:00
9:53 PM,66.9,59.0,76,30.16,10.0,East,5.8,-,N/A,,Clear,80,2013-04-10 01:53:00
10:53 PM,66.0,59.0,78,30.16,10.0,East,5.8,-,N/A,,Partly Cloudy,80,2013-04-10 02:53:00
11:53 PM,64.9,59.0,81,30.16,10.0,East,5.8,-,N/A,,Partly Cloudy,80,2013-04-10 03:53:00